sat.trackr.live / text

‹ back to catalog

STARLINK-37921

NORAD 69969 · 2026-157AC

PAYLOAD ACTIVE UNKNOWN

§ Identity

Operator
Country
US
Launch date
2026-07-09
Launch site
AFETR
Launch vehicle
Mass (kg)
RCS (m²)

Purposes: comms

External: N2YO · Heavens-Above · Gunter

§ Orbital elements

Epoch: 2026-09-19T20:01:50.996928Z

Period
93.85 min
Inclination
53.1568°
Eccentricity
0.0000994
Mean motion
15.34408024 rev/d
Perigee alt
462.0 km
Apogee alt
463.4 km
Semi-major
6,840.8 km
B*
6.2083e-4
RAAN
336.6112°
Arg perigee
55.2338°
Mean anomaly
304.8758°
Rev number
1,127

§ Raw data

STARLINK-379211 69969U 26157AC  26262.83461802  .00020663  00000+0  62083-3 0  99982 69969  53.1568 336.6112 0000994  55.2338 304.8758 15.34408024 11276

JSON: /api/v1/satellites/69969 · /tle

For live sub-satellite position, see the globe view (requires WebGL).

§ Visibility from observer

Set your observer location to see the next 7 days of passes ≥ 10°. The values pass through the URL so the page stays shareable.

No JS? Fill the form by hand. The geolocation button needs JavaScript.